Content
SEND FEEDBACK

Daily
Averages
Monthly
Summary
United States of America

WICHITA, KANSAS


Home > North America > United States > Kansas
Elevation: 1321 feet     Latitude: 37 39N     Longitude: 097 26W

WEATHER
 
SELECT A DAY
Number of Records: 191,881;   Date Range: 1/1/95 - 7/26/14
 
SHARE

PRINT THIS DATA

[ ← Previous Day ]
WEATHER ALMANAC - MARCH 23, 2013
[ Next Day → ]
[ °C ]   °F
Weather ElementAverageHighLow
Temperature34.3 °F37 °F (12:53 am)32 °F (11:10 pm)
Dewpoint32.9 °F34 °F (4:53 am)30.9 °F (12:53 am)
Humidity95.1 %100 % (7:41 am)79 % (12:53 am)
Barometer29.91 in29.97 in (9:53 am)29.83 in (4:15 pm)
Wind Speed14 mph19.6 mph (8:53 am)
Wind Gust34.5 mph (8:45 pm)
Weather ElementAverage
Visibility2.9 mi
Wind DirectionENE (68.4 °)

Weather ElementTotal
Precipitation0.48 in
Heating Degree Days30.5 (Base 65)
Averaged from 38 records on March 23, 2013
WEATHER CONDITIONS BREAKOUT
WIND DIRECTION BREAKOUT
WEATHER BY HOUR - MARCH 23, 2013
[ °C ]   °F
Local TimeTemperatureDewpointHumidityBarometerVisibilityWind DirectionWind SpeedGust SpeedPrecipitationEventsConditions
12:53 AM37.0 °F30.9 °F79 %29.95 in10.0 miEast (80°)11.5 mphOvercast
1:53 AM37.0 °F30.9 °F79 %29.96 in10.0 miEast (100°)10.4 mphOvercast
2:53 AM37.0 °F30.9 °F79 %29.94 in10.0 miENE (60°)11.5 mphOvercast
3:53 AM36.0 °F32.0 °F86 %29.92 in8.0 miEast (80°)11.5 mph0.00 inLight Drizzle
4:53 AM35.1 °F34.0 °F96 %29.91 in2.5 miNE (50°)12.7 mph0.00 inLight Drizzle
5:06 AM35.6 °F33.8 °F93 %29.90 in3.0 miNE (40°)12.7 mph0.00 inLight Drizzle
5:53 AM34.0 °F33.1 °F96 %29.92 in2.5 miNE (50°)10.4 mph0.00 inLight Drizzle
6:53 AM34.0 °F33.1 °F96 %29.93 in2.5 miENE (70°)12.7 mph0.00 inLight Drizzle
7:41 AM33.8 °F33.8 °F100 %29.92 in3.0 miEast (80°)11.5 mph0.00 inLight Drizzle
7:49 AM33.8 °F33.8 °F100 %29.93 in2.0 miEast (90°)9.2 mph0.00 inOvercast
7:53 AM34.0 °F33.1 °F96 %29.96 in2.0 miENE (70°)9.2 mph0.00 inOvercast
8:36 AM33.8 °F33.8 °F100 %29.93 in2.0 miNNE (30°)10.4 mph0.00 inRain-SnowLight Rain
8:53 AM34.0 °F33.1 °F96 %29.91 in1.5 miNE (50°)19.6 mph0.00 inRain-SnowLight Rain
9:53 AM34.0 °F33.1 °F96 %29.97 in1.8 miNNE (20°)9.2 mph0.05 inRain-SnowLight Rain
10:00 AM33.8 °F33.8 °F100 %29.95 in2.0 miNNE (20°)10.4 mph0.00 inRain-SnowLight Rain
10:21 AM33.8 °F32.0 °F93 %29.94 in1.2 miNNE (30°)11.5 mph0.05 inRain-SnowLight Rain
10:53 AM33.1 °F32.0 °F96 %29.95 in0.5 miNE (40°)11.5 mph0.09 inFog-SnowLight Snow
11:46 AM33.8 °F32.0 °F93 %29.92 in1.5 miNE (50°)13.8 mph0.02 inSnowLight Snow
11:53 AM34.0 °F32.0 °F92 %29.94 in1.5 miNE (50°)12.7 mph0.03 inSnowLight Snow
12:53 PM34.0 °F33.1 °F96 %29.92 in1.5 miNE (50°)13.8 mph0.02 inSnowLight Snow
1:53 PM35.1 °F33.1 °F92 %29.88 in1.5 miNE (50°)18.4 mph24.2 mph0.00 inOvercast
2:01 PM35.6 °F33.8 °F93 %29.85 in4.0 miNE (50°)18.4 mph25.3 mphOvercast
2:53 PM35.1 °F33.1 °F92 %29.88 in3.0 miNE (50°)12.7 mphOvercast
3:53 PM35.1 °F34.0 °F96 %29.86 in2.0 miNE (40°)11.5 mph0.00 inLight Drizzle
4:15 PM35.6 °F33.8 °F93 %29.83 in1.2 miNE (40°)15.0 mph0.01 inLight Drizzle
4:53 PM35.1 °F34.0 °F96 %29.86 in1.2 miNNE (20°)13.8 mph0.02 inLight Drizzle
5:53 PM34.0 °F33.1 °F96 %29.88 in1.5 miNNE (30°)17.3 mph23.0 mph0.01 inLight Drizzle
6:53 PM34.0 °F32.0 °F92 %29.91 in1.5 miNNE (20°)12.7 mph0.00 inLight Drizzle
7:53 PM33.1 °F33.1 °F100 %29.89 in1.0 miNNE (20°)18.4 mph25.3 mph0.01 inSnowLight Snow
8:45 PM33.8 °F33.8 °F100 %29.85 in3.0 miNNE (30°)18.4 mph34.5 mph0.00 inSnowLight Snow
8:53 PM33.1 °F33.1 °F100 %29.90 in3.0 miNNE (20°)19.6 mph26.5 mph0.00 inSnowLight Snow
9:23 PM33.8 °F33.8 °F100 %29.87 in6.0 miNNE (20°)19.6 mph27.6 mph0.00 inSnowLight Snow
9:53 PM34.0 °F34.0 °F100 %29.93 in6.0 miNNE (20°)16.1 mph26.5 mph0.00 inSnowLight Snow
10:53 PM33.1 °F33.1 °F100 %29.93 in3.0 miNorth (10°)16.1 mph24.2 mph0.00 inSnowLight Snow
11:00 PM33.8 °F33.8 °F100 %29.89 in1.8 miNorth (10°)17.3 mph0.01 inSnowLight Snow
11:10 PM32.0 °F32.0 °F100 %29.91 in0.8 miNorth (360°)16.1 mph0.02 inSnowLight Snow
11:29 PM32.0 °F32.0 °F100 %29.91 in0.5 miNorth (360°)15.0 mph0.05 inFog-SnowSnow
11:53 PM32.0 °F32.0 °F100 %29.95 in0.5 miNNW (340°)18.4 mph21.9 mph0.09 inFog-SnowSnow
Hourly data recorded from KICT, located miles away from Wichita, Kansas







STORIES FROM OUR PARTNERS